Location: Alberta Star Party
(51.6612°N, 112.9089°W)
Time: 18:20:07
(UTC-06:00)

AO-Echo - Visible Passes

Search period start: 25 May 2018 00:00
Search period end: 04 June 2018 00:00
Orbit: 694 x 811 km, 98.4° (Epoch: 25 May)

Date Brightness Start Highest point End Pass type
(mag) Time Alt. Az. Time Alt. Az. Time Alt. Az.
25 May ? 01:08:20 10° ENE 01:09:16 10° E 01:10:13 10° E visible
25 May ? 02:43:48 10° NNE 02:49:03 62° ESE 02:52:38 21° S visible
25 May ? 04:23:07 10° N 04:27:25 26° WNW 04:31:47 10° WSW visible
26 May ? 02:03:38 10° NNE 02:08:17 30° E 02:11:40 16° SE visible
26 May ? 03:42:08 10° N 03:47:13 50° WNW 03:51:36 14° SW visible
27 May ? 01:24:17 10° NE 01:27:16 15° E 01:30:15 10° ESE visible
27 May ? 03:01:27 10° NNE 03:06:47 84° ESE 03:10:39 19° SSW visible
28 May ? 02:21:06 10° NNE 02:26:07 41° E 02:29:41 18° SSE visible
28 May ? 03:59:57 10° N 04:04:48 37° WNW 04:09:36 10° SW visible
29 May ? 01:41:16 10° NE 01:45:12 21° E 01:48:42 12° SE visible
29 May ? 03:19:10 10° NNE 03:24:28 73° WNW 03:28:38 17° SSW visible
30 May ? 02:38:39 10° NNE 02:43:54 56° E 02:47:40 19° S visible
30 May ? 04:17:52 10° N 04:22:21 29° WNW 04:26:51 10° WSW visible
31 May ? 01:58:33 10° NE 02:03:06 28° E 02:06:42 14° SE visible
31 May ? 03:36:56 10° N 03:42:07 54° WNW 03:46:37 14° SW visible
01 Jun ? 01:19:24 10° NE 01:22:03 14° E 01:24:41 10° ESE visible
01 Jun ? 02:56:18 10° NNE 03:01:39 77° ESE 03:05:39 18° S visible
02 Jun ? 02:16:00 10° NNE 02:20:57 38° E 02:24:40 16° SSE visible
02 Jun ? 03:54:45 10° N 03:59:43 41° WNW 04:04:36 10° SW visible
03 Jun ? 01:36:17 10° NE 01:40:01 19° E 01:43:41 10° SE visible
03 Jun ? 03:14:00 10° NNE 03:19:21 80° WNW 03:23:37 16° SSW visible
